Location: Unspecified
(33.6682°S, 0.0000°E)
Time: 23:43:40
(UTC+00:00)

S-56A Canister/Altair - Pass Details

Date: 28 June 2019
Orbit: 632 x 2500 km, 38.9° (Epoch: 18 July)

Event Time Altitude Azimuth Distance (km) Brightness Sun altitude
Exits shadow 03:43:44 58° 139° (SE) 1,792 9.3 -41.0°
Drops below altitude 10° 03:53:31 10° 104° (ESE) 4,472 12.1 -39.0°
Sets 03:57:44 0° 101° (E) 5,717 12.8 -38.1°
